contact:dominique.lefevre@mio.osupytheas.fr, maurice.libes@osupytheas.fr, didier.mallarino@osupytheas.fr
Project:EMSO http://www.emso-fr.org/EMSO-France
Depth: 2436.0 m
Title:EMSO Ligure Ouest : Data MII capteur AQUADOPP
Date,Latitude,Longitude,X_East,Y_North,Z_Up,Amplitude_X,Amplitude_Y,Amplitude_Z,Batterie,SoundSpeed,Heading,Pitch,Roll,Pressure,TIS,Speed,Direction
, degrees North, degrees East, m.s-1, m.s-1,m.s-1, 1, 1, 1, Volt, m.s-1, degree, degree, degree, dbar, degree_C, m.s-1, degree
2023-05-10T00:04:03,42.805,6.029,0.026,0.02,-0.006,102.0,103.0,100.0,13.3,1505.2,320.0,-0.8,1.8,2471.516,13.28,0.032,52.4
2023-05-10T00:07:03,42.805,6.029,0.038,0.0,-0.026,101.0,103.0,102.0,13.4,1505.2,346.7,-0.8,1.8,2471.512,13.28,0.038,90.0
2023-05-10T00:10:03,42.805,6.029,0.006,0.009,-0.014,103.0,102.0,99.0,13.4,1505.2,336.5,-0.8,1.8,2471.494,13.28,0.01,33.7
2023-05-10T00:13:03,42.805,6.029,0.011,0.026,-0.04,101.0,102.0,101.0,13.3,1505.2,335.0,-0.8,1.8,2471.451,13.29,0.028,22.9
2023-05-10T00:16:03,42.805,6.029,0.038,0.021,-0.029,101.0,102.0,101.0,13.4,1505.2,321.7,-0.8,1.9,2471.482,13.29,0.043,61.1
2023-05-10T00:19:03,42.805,6.029,0.02,0.011,-0.029,101.0,102.0,101.0,13.3,1505.2,331.9,-0.8,1.8,2471.476,13.29,0.022,61.2
2023-05-10T00:22:03,42.805,6.029,0.01,0.032,-0.012,102.0,101.0,101.0,13.3,1505.2,332.2,-0.7,1.8,2471.474,13.29,0.033,17.4
2023-05-10T00:25:03,42.805,6.029,0.032,0.007,-0.017,101.0,103.0,101.0,13.4,1505.2,336.6,-0.7,1.8,2471.43,13.29,0.032,77.7
2023-05-10T00:28:03,42.805,6.029,0.05,-0.024,-0.024,102.0,102.0,100.0,13.4,1505.2,345.1,-0.8,1.8,2471.462,13.29,0.055,115.6
2023-05-10T00:31:03,42.805,6.029,0.033,0.001,-0.019,102.0,102.0,101.0,13.3,1505.2,332.9,-0.8,1.8,2471.446,13.29,0.033,88.3
2023-05-10T00:34:03,42.805,6.029,0.006,0.03,-0.021,102.0,102.0,101.0,13.4,1505.2,330.1,-0.7,1.8,2471.448,13.29,0.03,11.3
2023-05-10T00:37:03,42.805,6.029,0.013,0.004,-0.033,101.0,103.0,101.0,13.4,1505.2,331.3,-0.8,1.8,2471.454,13.29,0.013,72.9
2023-05-10T00:40:03,42.805,6.029,0.032,0.021,-0.007,102.0,102.0,100.0,13.3,1505.2,335.0,-0.8,1.8,2471.428,13.29,0.038,56.7
2023-05-10T00:43:03,42.805,6.029,0.044,0.005,-0.009,102.0,103.0,101.0,13.4,1505.2,337.5,-0.7,1.8,2471.428,13.29,0.044,83.5
2023-05-10T00:46:03,42.805,6.029,0.044,0.007,-0.016,102.0,102.0,100.0,13.3,1505.2,321.6,-0.7,1.8,2471.427,13.29,0.044,81.0
2023-05-10T00:49:03,42.805,6.029,0.053,0.007,0.025,102.0,103.0,100.0,13.3,1505.2,345.4,-0.8,1.8,2471.422,13.29,0.053,82.5
2023-05-10T00:52:03,42.805,6.029,0.028,0.033,-0.013,101.0,104.0,101.0,13.4,1505.2,319.1,-0.8,1.8,2471.452,13.29,0.043,40.3
2023-05-10T00:55:03,42.805,6.029,0.051,-0.006,-0.021,102.0,101.0,101.0,13.4,1505.2,345.1,-0.8,1.8,2471.399,13.29,0.051,96.7
2023-05-10T00:58:03,42.805,6.029,0.032,0.013,-0.035,101.0,105.0,102.0,13.4,1505.2,325.5,-0.8,1.8,2471.43,13.29,0.034,67.9
2023-05-10T01:04:03,42.805,6.029,0.022,0.029,0.015,103.0,105.0,102.0,13.4,1505.2,342.6,-0.8,1.8,2471.463,13.28,0.036,37.2
2023-05-10T01:07:03,42.805,6.029,0.031,0.014,-0.003,102.0,102.0,100.0,13.4,1505.2,322.7,-0.8,1.8,2471.45,13.28,0.034,65.7
2023-05-10T01:10:03,42.805,6.029,0.028,-0.001,-0.002,101.0,104.0,101.0,13.4,1505.2,342.1,-0.8,1.8,2471.472,13.28,0.028,92.0
2023-05-10T01:13:03,42.805,6.029,0.043,0.04,0.01,102.0,103.0,101.0,13.3,1505.2,323.7,-0.8,1.8,2471.444,13.28,0.058,47.1
2023-05-10T01:16:03,42.805,6.029,0.041,0.022,0.006,102.0,103.0,101.0,13.3,1505.2,336.5,-0.8,1.8,2471.441,13.29,0.046,61.8
2023-05-10T01:19:03,42.805,6.029,0.043,0.007,0.001,102.0,102.0,100.0,13.4,1505.2,337.0,-0.7,1.8,2471.422,13.29,0.043,80.8
2023-05-10T01:22:03,42.805,6.029,0.02,0.012,0.016,101.0,103.0,100.0,13.4,1505.2,329.5,-0.8,1.8,2471.43,13.29,0.023,59.0
2023-05-10T01:25:03,42.805,6.029,0.024,0.016,0.007,100.0,104.0,100.0,13.3,1505.2,331.4,-0.8,1.8,2471.463,13.29,0.028,56.3
2023-05-10T01:28:03,42.805,6.029,0.041,0.004,-0.032,102.0,103.0,101.0,13.4,1505.2,338.0,-0.8,1.8,2471.438,13.29,0.041,84.4
2023-05-10T01:31:03,42.805,6.029,0.015,0.019,-0.048,102.0,102.0,101.0,13.4,1505.2,323.8,-0.8,1.8,2471.409,13.29,0.024,38.3
2023-05-10T01:34:03,42.805,6.029,0.012,0.008,-0.044,102.0,102.0,100.0,13.4,1505.2,339.5,-0.7,1.8,2471.385,13.29,0.014,56.3
2023-05-10T01:37:03,42.805,6.029,0.041,-0.012,-0.009,101.0,102.0,101.0,13.4,1505.2,343.9,-0.7,1.8,2471.41,13.29,0.042,106.3
2023-05-10T01:40:03,42.805,6.029,0.023,0.008,-0.029,102.0,102.0,100.0,13.4,1505.2,325.7,-0.8,1.8,2471.389,13.29,0.024,70.8
2023-05-10T01:43:03,42.805,6.029,0.02,0.022,-0.041,102.0,102.0,101.0,13.4,1505.2,320.4,-0.7,1.8,2471.396,13.29,0.029,42.3
2023-05-10T01:46:03,42.805,6.029,0.05,0.013,-0.012,103.0,102.0,100.0,13.4,1505.2,336.0,-0.7,1.8,2471.385,13.29,0.051,75.4
2023-05-10T01:49:03,42.805,6.029,0.033,0.03,-0.028,102.0,104.0,100.0,13.3,1505.2,326.0,-0.8,1.8,2471.406,13.29,0.044,47.7
2023-05-10T01:52:03,42.805,6.029,0.022,0.013,-0.012,101.0,104.0,101.0,13.4,1505.2,324.1,-0.7,1.8,2471.42,13.29,0.025,59.4
2023-05-10T01:55:03,42.805,6.029,0.022,0.015,-0.014,101.0,104.0,102.0,13.4,1505.2,345.4,-0.8,1.9,2471.379,13.29,0.026,55.7
2023-05-10T01:58:03,42.805,6.029,0.014,0.015,0.003,102.0,102.0,101.0,13.4,1505.2,327.5,-0.8,1.8,2471.391,13.29,0.02,43.0
2023-05-10T02:04:03,42.805,6.029,0.016,0.034,-0.01,101.0,102.0,100.0,13.4,1505.2,340.1,-0.8,1.8,2471.446,13.28,0.037,25.2
2023-05-10T02:07:03,42.805,6.029,0.016,0.025,0.003,102.0,104.0,100.0,13.4,1505.2,337.6,-0.8,1.8,2471.412,13.28,0.029,32.6
2023-05-10T02:10:03,42.805,6.029,0.041,0.006,-0.026,101.0,102.0,102.0,13.3,1505.2,318.0,-0.8,1.8,2471.423,13.28,0.041,81.7
2023-05-10T02:13:03,42.805,6.029,0.042,-0.003,0.01,103.0,104.0,100.0,13.4,1505.2,343.7,-0.8,1.8,2471.41,13.28,0.042,94.1
2023-05-10T02:16:03,42.805,6.029,0.03,0.033,-0.014,102.0,101.0,101.0,13.3,1505.2,324.4,-0.7,1.8,2471.407,13.29,0.044,42.3
2023-05-10T02:19:03,42.805,6.029,0.036,0.026,0.017,102.0,104.0,100.0,13.4,1505.2,322.4,-0.8,1.8,2471.366,13.29,0.044,54.2
2023-05-10T02:22:03,42.805,6.029,0.007,0.034,0.033,102.0,102.0,101.0,13.4,1505.2,323.8,-0.8,1.8,2471.37,13.29,0.034,11.6
2023-05-10T02:25:03,42.805,6.029,0.022,0.021,0.007,101.0,102.0,100.0,13.4,1505.2,323.3,-0.8,1.8,2471.371,13.29,0.03,46.3
2023-05-10T02:28:03,42.805,6.029,0.051,0.017,-0.004,102.0,103.0,100.0,13.4,1505.2,331.3,-0.8,1.8,2471.362,13.29,0.053,71.6
2023-05-10T02:31:03,42.805,6.029,0.049,0.018,-0.034,103.0,102.0,100.0,13.4,1505.2,344.8,-0.8,1.8,2471.34,13.29,0.052,69.8
2023-05-10T02:34:03,42.805,6.029,0.039,0.001,-0.006,102.0,102.0,100.0,13.3,1505.2,333.9,-0.8,1.8,2471.381,13.29,0.039,88.5
2023-05-10T02:37:03,42.805,6.029,0.05,0.01,-0.009,103.0,101.0,102.0,13.3,1505.2,323.7,-0.8,1.8,2471.359,13.29,0.05,78.7
2023-05-10T02:40:03,42.805,6.029,0.03,0.024,-0.031,102.0,103.0,100.0,13.3,1505.2,339.3,-0.8,1.8,2471.348,13.29,0.038,51.3
2023-05-10T02:43:03,42.805,6.029,0.063,0.002,0.003,101.0,104.0,101.0,13.4,1505.2,340.0,-0.8,1.8,2471.355,13.29,0.063,88.2
2023-05-10T02:46:03,42.805,6.029,0.035,0.013,-0.035,102.0,103.0,100.0,13.4,1505.2,326.8,-0.8,1.8,2471.382,13.29,0.037,69.6
2023-05-10T02:49:03,42.805,6.029,0.036,0.012,0.004,101.0,102.0,102.0,13.4,1505.2,328.3,-0.8,1.8,2471.351,13.29,0.037,71.6
2023-05-10T02:52:03,42.805,6.029,0.052,-0.016,-0.039,102.0,103.0,100.0,13.4,1505.2,329.8,-0.8,1.8,2471.36,13.29,0.054,107.1
2023-05-10T02:55:03,42.805,6.029,0.034,0.013,0.003,101.0,103.0,100.0,13.3,1505.2,329.5,-0.8,1.9,2471.372,13.29,0.036,69.1
2023-05-10T02:58:03,42.805,6.029,0.033,0.013,-0.015,102.0,102.0,101.0,13.3,1505.2,333.4,-0.8,1.8,2471.336,13.29,0.035,68.5
2023-05-10T03:04:03,42.805,6.029,0.025,0.006,-0.036,101.0,103.0,100.0,13.4,1505.2,336.5,-0.8,1.8,2471.383,13.28,0.025,76.5
2023-05-10T03:07:03,42.805,6.029,0.028,0.014,-0.011,101.0,102.0,102.0,13.4,1505.2,344.7,-0.7,1.8,2471.369,13.28,0.031,63.4
2023-05-10T03:10:03,42.805,6.029,0.039,0.017,0.023,102.0,102.0,100.0,13.4,1505.2,326.6,-0.8,1.9,2471.365,13.28,0.042,66.5
2023-05-10T03:13:03,42.805,6.029,0.02,0.019,-0.018,100.0,102.0,102.0,13.3,1505.2,331.4,-0.8,1.8,2471.359,13.29,0.027,46.5
2023-05-10T03:16:03,42.805,6.029,0.033,0.026,0.012,102.0,100.0,100.0,13.4,1505.2,342.8,-0.7,1.9,2471.325,13.28,0.042,51.8
2023-05-10T03:19:03,42.805,6.029,0.057,0.013,0.009,102.0,101.0,101.0,13.4,1505.2,332.1,-0.8,1.8,2471.319,13.29,0.058,77.2
2023-05-10T03:22:03,42.805,6.029,0.041,-0.001,0.009,101.0,103.0,100.0,13.4,1505.2,344.8,-0.8,1.8,2471.347,13.29,0.041,91.4
2023-05-10T03:25:03,42.805,6.029,0.05,0.005,0.017,102.0,103.0,100.0,13.4,1505.2,338.5,-0.7,1.8,2471.337,13.29,0.05,84.3
2023-05-10T03:28:03,42.805,6.029,0.041,0.023,0.019,100.0,102.0,102.0,13.4,1505.2,325.5,-0.7,1.8,2471.351,13.29,0.047,60.7
2023-05-10T03:31:03,42.805,6.029,0.036,0.003,0.0,100.0,102.0,101.0,13.3,1505.2,327.1,-0.8,1.8,2471.335,13.29,0.036,85.2
2023-05-10T03:34:03,42.805,6.029,0.045,0.001,-0.012,101.0,102.0,101.0,13.4,1505.2,338.2,-0.8,1.8,2471.35,13.29,0.045,88.7
2023-05-10T03:37:03,42.805,6.029,0.014,0.013,-0.012,102.0,102.0,101.0,13.3,1505.2,323.1,-0.8,1.8,2471.355,13.29,0.019,47.1
2023-05-10T03:40:03,42.805,6.029,0.041,0.025,0.0,102.0,102.0,101.0,13.3,1505.2,332.5,-0.7,1.8,2471.325,13.29,0.048,58.6
2023-05-10T03:43:03,42.805,6.029,0.022,-0.007,-0.052,101.0,102.0,101.0,13.4,1505.2,343.7,-0.8,1.8,2471.312,13.29,0.023,107.6
2023-05-10T03:46:03,42.805,6.029,0.039,0.027,0.008,101.0,102.0,102.0,13.3,1505.2,330.3,-0.8,1.8,2471.366,13.29,0.047,55.3
2023-05-10T03:49:03,42.805,6.029,0.045,0.013,-0.01,100.0,103.0,101.0,13.4,1505.2,345.1,-0.8,1.8,2471.335,13.29,0.046,73.9
2023-05-10T03:52:03,42.805,6.029,0.018,0.004,-0.033,100.0,102.0,101.0,13.3,1505.2,338.8,-0.8,1.8,2471.317,13.29,0.018,77.5
2023-05-10T03:55:03,42.805,6.029,0.029,0.036,-0.011,102.0,102.0,101.0,13.4,1505.2,330.2,-0.8,1.8,2471.283,13.29,0.046,38.9
2023-05-10T03:58:03,42.805,6.029,0.023,0.021,0.003,103.0,102.0,101.0,13.4,1505.2,330.8,-0.8,1.8,2471.269,13.29,0.031,47.6
2023-05-10T04:04:03,42.805,6.029,0.026,0.023,0.013,101.0,102.0,101.0,13.4,1505.2,326.5,-0.7,1.8,2471.34,13.28,0.034,48.5
2023-05-10T04:07:03,42.805,6.029,0.024,0.009,-0.021,102.0,102.0,101.0,13.4,1505.2,326.3,-0.8,1.8,2471.351,13.28,0.025,69.4
2023-05-10T04:10:03,42.805,6.029,0.055,0.009,0.016,101.0,103.0,100.0,13.3,1505.2,333.8,-0.8,1.8,2471.374,13.28,0.055,80.7
2023-05-10T04:13:03,42.805,6.029,0.035,0.017,0.034,102.0,102.0,101.0,13.4,1505.2,332.5,-0.7,1.8,2471.336,13.28,0.038,64.1
2023-05-10T04:16:03,42.805,6.029,0.037,0.006,-0.018,102.0,103.0,101.0,13.4,1505.2,338.0,-0.8,1.8,2471.326,13.29,0.037,80.8
2023-05-10T04:19:03,42.805,6.029,0.046,0.022,0.024,102.0,104.0,101.0,13.4,1505.2,330.2,-0.8,1.8,2471.307,13.29,0.05,64.4
2023-05-10T04:22:03,42.805,6.029,0.032,0.008,-0.04,101.0,102.0,102.0,13.3,1505.2,326.7,-0.7,1.8,2471.314,13.29,0.032,76.0
2023-05-10T04:25:03,42.805,6.029,0.029,0.019,-0.006,102.0,103.0,101.0,13.4,1505.2,327.1,-0.8,1.8,2471.317,13.29,0.034,56.8
2023-05-10T04:28:03,42.805,6.029,0.045,0.0,0.004,102.0,104.0,101.0,13.4,1505.2,320.3,-0.8,1.8,2471.329,13.29,0.045,90.0
2023-05-10T04:31:03,42.805,6.029,0.015,0.037,0.0,101.0,104.0,101.0,13.4,1505.2,332.6,-0.8,1.8,2471.277,13.29,0.039,22.1
2023-05-10T04:34:03,42.805,6.029,0.051,0.015,0.007,103.0,103.0,101.0,13.3,1505.2,343.7,-0.7,1.8,2471.313,13.29,0.053,73.6
2023-05-10T04:37:03,42.805,6.029,0.035,0.009,-0.015,102.0,103.0,101.0,13.4,1505.2,335.4,-0.8,1.8,2471.278,13.29,0.036,75.6
2023-05-10T04:40:03,42.805,6.029,0.056,0.002,-0.01,102.0,103.0,101.0,13.4,1505.2,322.7,-0.8,1.8,2471.318,13.29,0.056,88.0
2023-05-10T04:43:03,42.805,6.029,0.034,-0.001,-0.015,102.0,102.0,100.0,13.4,1505.2,335.4,-0.7,1.8,2471.324,13.29,0.034,91.7
2023-05-10T04:46:03,42.805,6.029,0.042,0.0,-0.032,101.0,103.0,101.0,13.4,1505.2,322.9,-0.8,1.8,2471.283,13.29,0.042,90.0
2023-05-10T04:49:03,42.805,6.029,0.039,-0.019,-0.032,103.0,103.0,101.0,13.4,1505.2,341.9,-0.7,1.8,2471.288,13.29,0.043,116.0
2023-05-10T04:52:03,42.805,6.029,0.032,0.012,-0.017,103.0,102.0,101.0,13.3,1505.2,333.9,-0.8,1.8,2471.291,13.29,0.034,69.4
2023-05-10T04:55:03,42.805,6.029,0.041,-0.021,-0.045,102.0,101.0,101.0,13.4,1505.2,329.1,-0.7,1.8,2471.292,13.29,0.046,117.1
2023-05-10T04:58:03,42.805,6.029,0.03,0.003,0.009,103.0,102.0,101.0,13.4,1505.2,329.3,-0.8,1.8,2471.275,13.29,0.03,84.3
2023-05-10T05:04:03,42.805,6.029,0.04,0.015,-0.017,102.0,101.0,101.0,13.3,1505.2,324.6,-0.7,1.8,2471.313,13.28,0.042,69.4
2023-05-10T05:07:03,42.805,6.029,0.05,0.018,0.0,100.0,102.0,102.0,13.4,1505.2,319.6,-0.7,1.8,2471.35,13.28,0.053,70.2
2023-05-10T05:10:03,42.805,6.029,0.042,0.013,-0.018,100.0,103.0,101.0,13.4,1505.2,338.6,-0.8,1.8,2471.322,13.28,0.043,72.8
2023-05-10T05:13:03,42.805,6.029,0.038,0.009,-0.015,100.0,102.0,102.0,13.4,1505.2,322.3,-0.8,1.8,2471.289,13.28,0.039,76.7
2023-05-10T05:16:03,42.805,6.029,0.021,0.008,0.01,102.0,101.0,101.0,13.3,1505.2,344.2,-0.8,1.8,2471.29,13.29,0.022,69.1
2023-05-10T05:19:03,42.805,6.029,0.043,0.011,0.041,102.0,102.0,101.0,13.4,1505.2,335.9,-0.8,1.8,2471.294,13.29,0.044,75.7
2023-05-10T05:22:03,42.805,6.029,0.029,0.024,-0.004,101.0,102.0,101.0,13.4,1505.2,333.8,-0.8,1.8,2471.304,13.29,0.037,50.4
2023-05-10T05:25:03,42.805,6.029,0.052,0.016,0.01,102.0,101.0,101.0,13.4,1505.2,332.9,-0.8,1.8,2471.331,13.29,0.054,72.9
2023-05-10T05:28:03,42.805,6.029,0.055,0.007,0.02,102.0,102.0,101.0,13.4,1505.2,335.4,-0.7,1.8,2471.298,13.29,0.055,82.7
2023-05-10T05:31:03,42.805,6.029,0.041,0.008,-0.011,101.0,102.0,100.0,13.4,1505.2,331.7,-0.8,1.8,2471.282,13.29,0.041,79.0
2023-05-10T05:34:03,42.805,6.029,0.031,0.017,-0.013,101.0,103.0,101.0,13.4,1505.2,333.0,-0.8,1.8,2471.298,13.29,0.035,61.3
2023-05-10T05:37:03,42.805,6.029,0.01,0.018,-0.02,102.0,102.0,102.0,13.4,1505.2,319.4,-0.8,1.8,2471.292,13.29,0.02,29.1
2023-05-10T05:40:03,42.805,6.029,0.028,0.0,-0.024,102.0,102.0,101.0,13.3,1505.2,337.5,-0.8,1.8,2471.283,13.29,0.028,90.0
2023-05-10T05:43:03,42.805,6.029,0.038,-0.008,-0.027,101.0,103.0,99.0,13.4,1505.2,337.0,-0.8,1.8,2471.315,13.29,0.038,101.9
2023-05-10T05:46:03,42.805,6.029,0.048,0.01,-0.039,102.0,102.0,101.0,13.4,1505.2,320.4,-0.8,1.8,2471.268,13.29,0.049,78.2
2023-05-10T05:49:03,42.805,6.029,0.029,0.034,0.014,102.0,103.0,100.0,13.3,1505.2,325.7,-0.8,1.8,2471.258,13.29,0.044,40.5
2023-05-10T05:52:03,42.805,6.029,0.036,0.007,-0.02,102.0,101.0,101.0,13.4,1505.2,320.5,-0.8,1.8,2471.302,13.29,0.036,79.0
2023-05-10T05:55:03,42.805,6.029,0.041,0.021,0.01,102.0,102.0,101.0,13.4,1505.2,332.1,-0.8,1.8,2471.273,13.29,0.046,62.9
2023-05-10T05:58:03,42.805,6.029,0.047,-0.001,-0.046,102.0,103.0,101.0,13.4,1505.2,328.3,-0.8,1.8,2471.272,13.29,0.047,91.2
2023-05-10T06:04:03,42.805,6.029,0.019,0.0,-0.016,101.0,103.0,100.0,13.4,1505.2,337.4,-0.8,1.8,2471.375,13.28,0.019,90.0
2023-05-10T06:07:03,42.805,6.029,0.031,0.015,-0.021,101.0,102.0,100.0,13.3,1505.2,337.6,-0.8,1.8,2471.331,13.28,0.034,64.2
2023-05-10T06:10:03,42.805,6.029,0.051,-0.004,-0.003,103.0,102.0,100.0,13.3,1505.2,330.0,-0.8,1.8,2471.338,13.28,0.051,94.5
2023-05-10T06:13:03,42.805,6.029,0.012,0.011,-0.018,101.0,102.0,101.0,13.3,1505.2,341.2,-0.7,1.8,2471.319,13.28,0.016,47.5
2023-05-10T06:16:03,42.805,6.029,0.039,0.012,-0.035,101.0,102.0,100.0,13.4,1505.2,320.5,-0.7,1.8,2471.321,13.28,0.04,72.9
2023-05-10T06:19:03,42.805,6.029,0.05,0.022,-0.004,101.0,103.0,101.0,13.4,1505.2,323.6,-0.7,1.8,2471.313,13.28,0.054,66.3
2023-05-10T06:22:03,42.805,6.029,0.045,0.004,-0.01,102.0,102.0,101.0,13.4,1505.2,320.6,-0.7,1.8,2471.279,13.29,0.045,84.9
2023-05-10T06:25:03,42.805,6.029,0.027,0.006,-0.008,103.0,102.0,101.0,13.4,1505.2,341.1,-0.8,1.8,2471.273,13.29,0.027,77.5
2023-05-10T06:28:03,42.805,6.029,0.038,0.003,0.003,102.0,102.0,101.0,13.3,1505.2,333.4,-0.8,1.8,2471.302,13.29,0.038,85.5
2023-05-10T06:31:03,42.805,6.029,0.045,0.025,-0.012,101.0,102.0,101.0,13.3,1505.2,318.0,-0.8,1.8,2471.3,13.29,0.051,60.9
2023-05-10T06:34:03,42.805,6.029,0.022,-0.006,-0.006,101.0,103.0,100.0,13.3,1505.2,340.8,-0.8,1.8,2471.308,13.29,0.022,105.3
2023-05-10T06:37:03,42.805,6.029,0.047,0.0,-0.008,102.0,103.0,100.0,13.3,1505.2,330.8,-0.8,1.8,2471.327,13.29,0.047,90.0
2023-05-10T06:40:03,42.805,6.029,0.032,0.013,-0.015,102.0,102.0,101.0,13.3,1505.2,324.1,-0.8,1.8,2471.315,13.29,0.034,67.9
2023-05-10T06:43:03,42.805,6.029,0.028,0.027,0.009,101.0,102.0,101.0,13.4,1505.2,327.1,-0.7,1.8,2471.301,13.29,0.038,46.0
2023-05-10T06:46:03,42.805,6.029,0.032,0.034,0.021,101.0,102.0,100.0,13.4,1505.2,325.1,-0.7,1.8,2471.348,13.29,0.046,43.3
2023-05-10T06:49:03,42.805,6.029,0.036,0.031,-0.007,101.0,103.0,100.0,13.3,1505.2,326.7,-0.7,1.8,2471.337,13.29,0.047,49.3
2023-05-10T06:52:03,42.805,6.029,0.029,0.022,0.023,101.0,103.0,101.0,13.4,1505.2,340.4,-0.8,1.8,2471.323,13.29,0.036,52.8
2023-05-10T06:55:03,42.805,6.029,0.012,0.004,-0.039,102.0,102.0,101.0,13.4,1505.2,336.1,-0.7,1.8,2471.313,13.29,0.012,71.6
2023-05-10T06:58:03,42.805,6.029,0.017,0.01,-0.035,101.0,102.0,101.0,13.3,1505.2,343.7,-0.8,1.8,2471.286,13.29,0.019,59.5
2023-05-10T07:04:03,42.805,6.029,0.037,0.002,-0.019,101.0,102.0,101.0,13.4,1505.2,333.4,-0.8,1.8,2471.35,13.28,0.037,86.9
2023-05-10T07:07:03,42.805,6.029,0.049,0.021,0.012,102.0,103.0,101.0,13.4,1505.2,325.7,-0.7,1.8,2471.369,13.28,0.053,66.8
2023-05-10T07:10:03,42.805,6.029,0.034,0.017,-0.003,102.0,103.0,100.0,13.4,1505.2,339.9,-0.7,1.8,2471.366,13.28,0.038,63.4
2023-05-10T07:13:03,42.805,6.029,0.05,0.009,-0.014,102.0,103.0,101.0,13.3,1505.2,328.7,-0.8,1.8,2471.346,13.28,0.05,79.8
2023-05-10T07:16:03,42.805,6.029,0.028,0.007,-0.02,101.0,103.0,100.0,13.4,1505.2,327.9,-0.8,1.8,2471.349,13.28,0.028,76.0
2023-05-10T07:19:03,42.805,6.029,0.022,-0.002,-0.014,101.0,103.0,101.0,13.4,1505.2,326.5,-0.7,1.8,2471.313,13.29,0.022,95.2
2023-05-10T07:22:03,42.805,6.029,0.013,-0.009,-0.051,100.0,103.0,101.0,13.4,1505.2,345.1,-0.8,1.8,2471.344,13.29,0.015,124.7
2023-05-10T07:25:03,42.805,6.029,0.054,-0.009,0.004,102.0,101.0,101.0,13.3,1505.2,336.0,-0.8,1.8,2471.363,13.29,0.054,99.5
2023-05-10T07:28:03,42.805,6.029,0.05,-0.001,0.004,103.0,103.0,100.0,13.3,1505.2,343.7,-0.7,1.8,2471.323,13.29,0.05,91.1
2023-05-10T07:31:03,42.805,6.029,0.025,0.01,0.006,101.0,103.0,100.0,13.3,1505.2,332.5,-0.8,1.8,2471.321,13.29,0.026,68.2
2023-05-10T07:34:03,42.805,6.029,0.026,-0.009,-0.062,101.0,102.0,101.0,13.3,1505.2,331.3,-0.8,1.8,2471.336,13.29,0.027,109.1
2023-05-10T07:37:03,42.805,6.029,0.041,-0.005,-0.029,101.0,102.0,101.0,13.4,1505.2,322.0,-0.8,1.8,2471.342,13.29,0.041,97.0
2023-05-10T07:40:03,42.805,6.029,0.039,0.006,-0.004,101.0,101.0,101.0,13.4,1505.2,340.9,-0.8,1.8,2471.358,13.29,0.039,81.3
2023-05-10T07:43:03,42.805,6.029,0.023,-0.003,-0.012,103.0,101.0,101.0,13.4,1505.2,336.9,-0.7,1.8,2471.354,13.29,0.023,97.4
2023-05-10T07:46:03,42.805,6.029,0.047,-0.023,-0.021,101.0,100.0,101.0,13.4,1505.2,346.2,-0.8,1.8,2471.332,13.29,0.052,116.1
2023-05-10T07:49:03,42.805,6.029,0.06,-0.001,0.0,101.0,102.0,101.0,13.4,1505.2,325.5,-0.8,1.8,2471.334,13.29,0.06,91.0
2023-05-10T07:52:03,42.805,6.029,0.042,0.008,-0.043,101.0,102.0,101.0,13.4,1505.2,319.3,-0.8,1.8,2471.362,13.29,0.042,79.2
2023-05-10T07:55:03,42.805,6.029,0.042,0.012,0.018,101.0,102.0,100.0,13.3,1505.2,334.8,-0.8,1.8,2471.317,13.29,0.043,74.1
2023-05-10T07:58:03,42.805,6.029,0.013,0.017,-0.029,101.0,102.0,101.0,13.4,1505.2,327.9,-0.8,1.8,2471.317,13.29,0.021,37.4
2023-05-10T08:04:03,42.805,6.029,0.058,-0.013,-0.015,101.0,103.0,101.0,13.4,1505.2,331.8,-0.8,1.8,2471.369,13.28,0.059,102.6
2023-05-10T08:07:03,42.805,6.029,0.038,0.023,-0.005,102.0,103.0,100.0,13.3,1505.2,327.4,-0.7,1.8,2471.394,13.28,0.044,58.8
2023-05-10T08:10:03,42.805,6.029,0.018,0.017,-0.041,101.0,104.0,102.0,13.3,1505.2,319.8,-0.8,1.8,2471.37,13.28,0.024,46.6
2023-05-10T08:13:03,42.805,6.029,0.045,0.009,-0.014,101.0,102.0,101.0,13.4,1505.2,328.1,-0.8,1.8,2471.393,13.28,0.045,78.7
2023-05-10T08:16:03,42.805,6.029,0.035,-0.008,-0.028,102.0,102.0,101.0,13.4,1505.2,315.6,-0.8,1.8,2471.353,13.28,0.035,102.9
2023-05-10T08:19:03,42.805,6.029,0.029,0.019,-0.021,101.0,102.0,101.0,13.4,1505.2,326.6,-0.8,1.8,2471.371,13.29,0.034,56.8
2023-05-10T08:22:03,42.805,6.029,0.054,0.016,0.004,101.0,102.0,100.0,13.4,1505.2,319.2,-0.8,1.8,2471.342,13.29,0.056,73.5
2023-05-10T08:25:03,42.805,6.029,0.051,-0.007,-0.014,102.0,101.0,101.0,13.4,1505.2,335.5,-0.8,1.8,2471.369,13.29,0.051,97.8
2023-05-10T08:28:03,42.805,6.029,0.034,0.008,-0.02,101.0,103.0,101.0,13.4,1505.2,323.8,-0.8,1.8,2471.312,13.29,0.034,76.8
2023-05-10T08:31:03,42.805,6.029,0.038,-0.003,-0.021,101.0,102.0,101.0,13.3,1505.2,337.4,-0.7,1.8,2471.337,13.29,0.038,94.5
2023-05-10T08:34:03,42.805,6.029,0.04,0.022,-0.02,101.0,102.0,101.0,13.4,1505.2,321.6,-0.8,1.8,2471.353,13.29,0.045,61.2
2023-05-10T08:37:03,42.805,6.029,0.025,-0.007,-0.015,101.0,101.0,101.0,13.3,1505.2,327.1,-0.8,1.8,2471.371,13.29,0.025,105.6
2023-05-10T08:40:03,42.805,6.029,0.036,0.0,-0.046,101.0,102.0,100.0,13.3,1505.2,323.7,-0.8,1.8,2471.369,13.29,0.036,90.0
2023-05-10T08:43:03,42.805,6.029,0.02,-0.009,-0.002,101.0,102.0,100.0,13.4,1505.2,345.1,-0.8,1.8,2471.342,13.29,0.021,114.2
2023-05-10T08:46:03,42.805,6.029,0.023,0.003,-0.041,101.0,103.0,101.0,13.3,1505.2,322.5,-0.8,1.8,2471.34,13.29,0.023,82.6
2023-05-10T08:49:03,42.805,6.029,0.035,0.005,0.005,102.0,102.0,101.0,13.3,1505.2,344.4,-0.7,1.8,2471.369,13.29,0.035,81.9
2023-05-10T08:52:03,42.805,6.029,0.046,-0.002,-0.017,102.0,102.0,101.0,13.4,1505.2,325.7,-0.8,1.8,2471.375,13.29,0.046,92.5
2023-05-10T08:55:03,42.805,6.029,0.028,0.016,-0.015,101.0,101.0,101.0,13.3,1505.2,342.5,-0.7,1.8,2471.306,13.29,0.032,60.3
2023-05-10T08:58:03,42.805,6.029,0.023,0.011,-0.003,101.0,103.0,101.0,13.4,1505.2,327.5,-0.8,1.8,2471.374,13.29,0.025,64.4
2023-05-10T09:04:03,42.805,6.029,0.034,0.006,-0.005,102.0,102.0,101.0,13.4,1505.2,325.2,-0.8,1.8,2471.362,13.28,0.034,80.0
2023-05-10T09:07:03,42.805,6.029,0.026,-0.002,0.006,102.0,102.0,101.0,13.3,1505.2,322.3,-0.8,1.8,2471.396,13.28,0.026,94.4
2023-05-10T09:10:03,42.805,6.029,0.022,0.009,-0.017,101.0,103.0,101.0,13.4,1505.2,320.0,-0.8,1.8,2471.414,13.28,0.023,67.8
2023-05-10T09:13:03,42.805,6.029,0.036,0.002,-0.02,104.0,100.0,101.0,13.4,1505.2,341.5,-0.8,1.8,2471.373,13.28,0.036,86.8
2023-05-10T09:16:03,42.805,6.029,0.03,0.014,-0.029,102.0,102.0,101.0,13.4,1505.2,318.9,-0.8,1.8,2471.407,13.29,0.033,65.0
2023-05-10T09:19:03,42.805,6.029,0.034,-0.006,-0.024,103.0,101.0,101.0,13.4,1505.2,339.3,-0.8,1.8,2471.363,13.29,0.034,100.0
2023-05-10T09:22:03,42.805,6.029,0.024,0.027,-0.016,102.0,101.0,100.0,13.4,1505.2,327.5,-0.8,1.8,2471.369,13.29,0.036,41.6
2023-05-10T09:25:03,42.805,6.029,0.022,0.0,-0.039,100.0,103.0,101.0,13.4,1505.2,317.5,-0.8,1.8,2471.35,13.29,0.022,90.0
2023-05-10T09:28:08,42.805,6.029,0.05,-0.015,0.0,102.0,101.0,101.0,13.4,1505.2,339.5,-0.8,1.8,2471.395,13.29,0.052,106.7
2023-05-10T09:31:03,42.805,6.029,0.051,0.008,0.0,103.0,100.0,101.0,13.3,1505.2,328.6,-0.8,1.8,2471.393,13.29,0.051,81.1
2023-05-10T09:34:04,42.805,6.029,0.03,0.014,0.03,102.0,101.0,101.0,13.4,1505.2,321.8,-0.8,1.8,2471.383,13.29,0.033,65.0
2023-05-10T09:37:06,42.805,6.029,0.023,0.006,-0.027,101.0,103.0,100.0,13.4,1505.2,325.4,-0.8,1.8,2471.414,13.29,0.023,75.4
2023-05-10T09:40:03,42.805,6.029,0.031,0.021,-0.009,102.0,102.0,100.0,13.4,1505.2,319.2,-0.7,1.8,2471.349,13.29,0.037,55.9
2023-05-10T09:43:03,42.805,6.029,0.045,-0.006,-0.018,101.0,103.0,101.0,13.4,1505.2,326.0,-0.8,1.8,2471.387,13.29,0.045,97.6
2023-05-10T09:46:03,42.805,6.029,0.037,-0.038,-0.036,102.0,101.0,101.0,13.3,1505.2,336.4,-0.7,1.8,2471.341,13.29,0.053,135.8
2023-05-10T09:49:03,42.805,6.029,0.025,0.01,-0.007,102.0,101.0,101.0,13.3,1505.2,327.1,-0.8,1.8,2471.333,13.29,0.026,68.2
2023-05-10T09:52:04,42.805,6.029,0.051,0.023,-0.011,100.0,102.0,101.0,13.4,1505.2,323.3,-0.8,1.8,2471.377,13.29,0.055,65.7
2023-05-10T09:55:04,42.805,6.029,0.026,0.004,-0.033,103.0,102.0,101.0,13.3,1505.2,344.0,-0.7,1.9,2471.397,13.29,0.026,81.3
2023-05-10T09:58:03,42.805,6.029,0.009,0.02,-0.007,102.0,102.0,101.0,13.4,1505.2,331.9,-0.7,1.8,2471.344,13.29,0.021,24.2
2023-05-10T10:04:03,42.805,6.029,0.051,0.0,-0.029,102.0,101.0,101.0,13.4,1505.2,323.9,-0.7,1.8,2471.377,13.28,0.051,90.0
2023-05-10T10:07:05,42.805,6.029,0.04,0.005,-0.026,101.0,103.0,101.0,13.4,1505.2,327.6,-0.8,1.8,2471.38,13.28,0.04,82.9